Temp
56 57 58 58 61 61 64 68 69 68 68 68 68 70 72 72 71 71 72 72 73 74
52 55 57 59 62 60 63 64 68 68 67 66 66 68 69 68 67 67 70 72 73 72
51 52 52 54 54 52 56 58 64 67 66 66 66 66 66 66 67 67 66 66 68 66
47 49 48 48 48 48 50 54 60 66 67 66 65 66 66 66 67 66 65 64 64 64
43 44 44 44 45 46 47 49 51 54 66 65 66 68 66 66 66 64 61 62 61 62
41 41 41 42 43 43 44 45 47 48 47 51 61 63 64 65 64 63 62 62 61 62
40 41 41 42 42 41 42 41 42 44 43 44 43 43 43 47 58 61 61 62 62 62
43 42 41 41 42 42 41 41 40 40 40 40 41 39 39 42 48 57 61 61 61 62
43 45 42 41 41 41 42 41 41 38 38 37 38 36 37 39 49 52 58 59 59 60
41 42 43 44 42 41 38 40 38 38 38 36 35 35 36 37 42 40 39 39 40 51
37 38 40 40 40 40 40 39 37 37 36 37 36 35 35 37 39 37 37 36 35 36
34 35 35 35 35 37 38 36 36 36 35 34 34 34 34 36 36 34 34 34 34 33
33 33 32 33 33 35 36 34 37 34 33 33 32 34 34 35 33 30 31 31 32 32
33 32 32 33 33 32 33 33 32 32 32 32 32 32 33 33 32 32 31 28 28 30
MSLP
1007.04 1007.08 1006.84 1006.50 1006.48 1007.05 1006.94 1006.34 1006.71 1007.36 1007.66 1007.87 1008.07 1008.32 1008.42 1008.69 1008.87 1008.17 1008.74 1009.06 1009.54 1009.95
1007.38 1007.20 1007.23 1007.40 1007.58 1007.74 1006.91 1006.71 1006.74 1007.01 1007.30 1007.54 1007.59 1007.48 1007.69 1008.10 1008.34 1008.54 1008.40 1008.28 1008.38 1009.10
1008.69 1008.54 1008.79 1008.59 1009.08 1008.13 1007.49 1007.36 1007.28 1006.76 1006.82 1007.08 1007.11 1007.15 1007.18 1007.30 1007.99 1007.93 1008.22 1008.08 1007.97 1008.61
1009.84 1009.95 1010.21 1009.28 1008.89 1008.59 1009.04 1007.59 1007.64 1006.64 1006.60 1006.54 1006.52 1006.48 1006.55 1006.74 1007.08 1007.35 1007.53 1007.42 1007.62 1007.94
1010.52 1010.85 1010.76 1010.01 1010.00 1009.69 1009.36 1009.67 1008.77 1007.54 1006.27 1006.21 1006.09 1005.87 1005.98 1006.22 1006.45 1006.72 1006.85 1006.78 1007.13 1007.25
1012.15 1012.62 1011.85 1011.64 1011.70 1011.51 1011.26 1010.55 1009.67 1008.82 1008.18 1007.66 1006.37 1006.02 1005.76 1005.75 1005.93 1006.20 1006.21 1006.19 1006.37 1006.47
1014.44 1014.28 1013.88 1013.50 1013.06 1012.52 1011.98 1011.66 1010.90 1010.45 1009.93 1009.42 1009.06 1008.65 1008.00 1007.17 1005.86 1005.50 1005.60 1005.64 1005.72 1005.94
1015.70 1015.38 1014.74 1014.02 1013.68 1013.26 1012.84 1012.66 1012.38 1011.67 1011.26 1010.89 1010.30 1010.08 1009.16 1008.04 1006.88 1005.85 1005.20 1005.11 1005.11 1005.18
1016.29 1015.51 1015.49 1015.23 1014.90 1014.44 1013.89 1013.42 1012.88 1012.78 1012.70 1011.81 1011.32 1010.82 1009.65 1008.63 1006.94 1006.35 1005.60 1005.01 1004.71 1004.63
1017.70 1016.97 1016.22 1015.77 1015.38 1015.00 1014.86 1014.71 1014.46 1014.03 1013.37 1012.96 1012.74 1011.40 1010.52 1009.62 1008.40 1007.97 1007.70 1007.20 1006.23 1005.10
1019.36 1018.46 1017.56 1017.11 1016.51 1015.98 1015.78 1015.51 1015.25 1015.04 1014.76 1014.12 1013.71 1013.08 1012.08 1010.78 1009.62 1009.09 1009.46 1009.16 1008.35 1007.48
1020.10 1019.58 1018.94 1018.34 1017.90 1017.34 1016.85 1016.59 1016.30 1016.21 1015.74 1015.30 1015.09 1014.46 1013.46 1011.90 1011.17 1011.24 1010.84 1010.52 1009.53 1008.60
1021.73 1021.24 1020.72 1020.15 1019.54 1018.90 1018.35 1018.04 1017.62 1017.37 1017.10 1016.66 1016.01 1015.26 1014.46 1013.70 1013.20 1012.64 1012.04 1011.60 1010.44 1009.64
1022.48 1022.24 1021.92 1021.41 1020.77 1020.24 1019.65 1019.13 1018.72 1018.25 1017.98 1017.55 1017.00 1016.45 1015.86 1015.15 1014.39 1013.82 1013.19 1012.50 1011.72 1011.42
Wind_Speed
12 6 5 7 4 4 5 5 6 8 11 13 14 16 16 12 12 15 15 17 16 12
13 12 10 9 7 5 6 5 7 8 11 11 12 15 12 10 13 11 14 16 15 12
14 14 13 11 10 12 11 12 11 9 9 11 11 12 12 11 12 13 12 10 13 12
15 15 12 13 14 15 13 14 17 12 10 10 12 12 13 13 12 16 14 11 13 15
17 17 16 17 16 16 15 14 13 15 10 10 10 10 11 14 15 15 14 13 13 15
20 16 18 17 16 15 14 15 15 15 15 17 8 7 9 13 14 13 14 14 14 15
17 15 13 14 14 15 15 16 16 16 16 16 16 16 15 12 9 11 11 12 13 15
14 15 15 15 15 14 16 15 15 15 16 16 15 14 16 13 11 11 11 11 13 14
17 18 17 15 16 17 17 16 17 16 16 17 14 28 26 18 9 9 11 12 12 14
17 18 18 18 18 18 16 17 17 19 18 18 20 33 30 22 12 11 12 14 13 10
17 17 18 18 18 18 16 17 17 18 19 18 19 32 31 22 14 13 13 13 15 13
19 19 19 19 18 16 16 16 15 15 18 19 18 31 32 21 15 13 12 12 14 15
15 15 15 15 15 15 14 13 12 13 15 20 17 29 31 25 10 12 10 10 13 25
14 13 14 14 13 12 11 12 12 12 12 15 17 19 28 28 13 11 9 10 11 11
Wind_Direction
48 41 45 20 7 318 316 232 212 225 222 217 211 210 216 221 223 202 206 211 214 222
38 31 24 13 357 331 320 314 270 221 223 231 229 218 216 216 215 214 213 215 213 219
35 32 24 22 5 360 351 330 288 245 227 229 227 218 212 210 220 213 220 217 210 213
40 32 26 27 17 12 340 351 312 248 239 231 221 218 215 216 215 222 220 214 213 214
39 30 23 27 16 10 7 354 348 350 253 237 246 233 216 218 220 219 222 217 215 215
29 23 23 22 18 17 9 8 11 13 17 3 310 271 241 224 227 224 226 222 215 216
28 23 24 26 28 26 23 18 18 21 23 15 19 7 349 332 287 223 230 229 224 220
33 34 30 30 28 31 33 29 23 21 24 20 20 3 345 328 299 287 235 230 233 228
25 29 35 37 38 35 34 29 30 28 19 21 15 360 358 342 301 298 286 236 229 230
23 25 28 31 33 36 34 32 33 26 22 25 15 11 6 356 28 29 20 17 8 325
24 26 25 29 29 32 32 33 32 29 26 23 18 14 10 5 24 30 26 24 18 13
23 22 22 24 22 25 30 26 29 28 24 22 17 15 16 14 20 17 19 10 19 21
24 25 21 19 19 20 21 25 24 24 23 19 17 16 17 16 15 11 9 6 15 21
25 23 22 20 21 19 17 21 19 19 20 19 19 14 16 19 15 6 6 8 9 13